Details for Thomas Cook Airlines at EGBB




Go Back


Latest METAR
Local Time

EGBB 221020Z 23005KT 200V290 9999 -RADZ FEW025 12/09 Q1018
22/09/2018, 11:47:40

Description
Results
Thomas Cook Airlines Logo
Number of Pilots based at EGBB
0 Pilots Based here
Number of Thomas Cook Airlines Flights Departed from EGBB
0 Flights Departed
Number of Thomas Cook Airlines Flights Arrived at EGBB
0 Flights Arrived
Number of Thomas Cook Airlines Schedules Departing from EGBB
29 Schedules
Number of Thomas Cook Airlines Schedules Arriving at EGBB
31 Schedules
Number of Thomas Cook Airlines Schedules Departing from EGBB availible today
6 Schedules Today
Number of Thomas Cook Airlines Schedules Arriving at EGBB availible today
7 Schedules Today
Average Landing Rate at EGBB
-219 fpm
Thomas Cook Airlines Average Landing Rate at EGBB
0 fpm
Total Fuel Purchased at EGBB by Thomas Cook Airlines
0.00 kgs / 0.00 lbs

Pilots Based at EGBB


Pilot ID
Pilot Name
Pilot Rank
No. of Flights
No. of Flying Hours
There are no pilots assigned to this hub!   Will you be the first?
Content